[[{"header":{"parameterUnit":"m.s-1","parameterCategory":1,"la1":30.2991,"la2":30.254,"lo1":-89.0895,"lo2":-89.0444,"dx":0.0017,"dy":0.0017,"nx":28,"ny":28,"refTime":"2022-12-07T03:00:00:Z","depth":0,"parameterNumber":2,"parameterNumberName":"U-component_of_WINDS"},"data":[0,0,0,0,0,0,0,0,0,0,0,0,0,0,0,0,0,0,0,0,0,0,0,0,0,0,0,0,0,0,0,0,0,0,0,0,0,0,0,0,0,0,0,0,0,0,0,0,0,0,0,0,0,0,0,0,0,0,0.0349,0.0349,0,0.0401,0.0401,0.0402,0.0413,0.0413,0.0412,0.0412,0.0467,0.0468,0.047,0,0,0,0,0,0,0,0,0,0,0,0,0,0.0259,0.0261,0.0349,0.0349,0.035,0.0401,0.0401,0.0402,0.0413,0.0413,0.0412,0.0412,0.0466,0.0468,0.047,0,0,0,0,0,0,0,0,0,0,0,0,0,0.0303,0.0261,0.0348,0.0361,0.0363,0.04,0.0401,0.0402,0.0413,0.0413,0.0412,0.0412,0.0465,0.0468,0.0471,0.0499,0,0,0.0479,0.048,0,0,0,0,0,0,0,0,0.0301,0.0307,0.0359,0.0361,0.0363,0.04,0.039,0.0435,0.0413,0.0394,0.0412,0.0411,0.0445,0.0449,0.046,0.0501,0.0504,0.0479,0.0481,0.0482,0.0483,0,0,0,0,0,0,0,0.0298,0.0305,0.0369,0.036,0.0362,0.0365,0.0371,0.0398,0.0422,0.0396,0.0397,0.0403,0.0446,0.0458,0.0462,0.0505,0.0479,0.0481,0.0483,0.0484,0.0572,0.0572,0,0,0,0,0,0,0.0292,0.0302,0.0368,0.0371,0.033,0.0367,0.0373,0.0388,0.0422,0.0426,0.0403,0.0403,0.0453,0.0458,0.0464,0.0499,0.0482,0.0484,0.0486,0.0571,0.0572,0.0572,0,0,0,0,0,0,0.029,0.0298,0.0365,0.0337,0.0345,0.0369,0.0386,0.039,0.0402,0.0427,0.0432,0.0411,0.0453,0.046,0.049,0.0501,0.0486,0.0488,0.057,0.0571,0.0572,0.057,0,0,0,0,0,0,0.0288,0.0297,0.0308,0.0337,0.0347,0.0391,0.0387,0.0391,0.0406,0.0407,0.0436,0.044,0.0453,0.0486,0.0493,0.0505,0.049,0.0569,0.0571,0.0572,0.057,0.0571,0.0573,0,0,0,0,0,0.0285,0.0306,0.0309,0.0317,0.0361,0.0391,0.0397,0.0411,0.0407,0.0418,0.0435,0.0439,0.0499,0.0489,0.0497,0.051,0.0569,0.057,0.0572,0.0569,0.0571,0.0573,0,0,0,0,0,0,0.0279,0.031,0.0313,0.0345,0.0365,0.0393,0.0408,0.0413,0.0435,0.0435,0.0452,0.0458,0.0487,0.0501,0.049,0.0539,0.0533,0.0537,0.0529,0.0531,0.0532,0.0529,0.0492,0,0,0,0,0,0.0281,0.0302,0.0329,0.0354,0.0364,0.0384,0.0398,0.0407,0.0429,0.0438,0.0457,0.0478,0.0502,0.0517,0.054,0.0571,0.0578,0.0584,0.0586,0.0587,0.059,0.0608,0.0611,0.0578,0.0578,0.0578,0,0,0.0286,0.0305,0.0318,0.0353,0.037,0.0393,0.0391,0.0415,0.0432,0.0442,0.0471,0.0486,0.0511,0.0542,0.0556,0.0554,0.06,0.0589,0.059,0.0592,0.061,0.0613,0.0615,0.0579,0.0578,0.0578,0,0,0.0306,0.0323,0.0346,0.0363,0.0389,0.0402,0.0407,0.0434,0.0444,0.0474,0.0482,0.0502,0.0542,0.056,0.0574,0.0601,0.0606,0.0608,0.0617,0.0634,0.0636,0.0639,0.0649,0.0652,0.061,0.061,0.061,0,0.0309,0.0343,0.0357,0.0381,0.0396,0.0405,0.0428,0.0444,0.0476,0.0486,0.0483,0.0534,0.0552,0.0587,0.0593,0.0604,0.0611,0.0605,0.0635,0.0637,0.064,0.065,0.0653,0.0611,0.0611,0.0611,0.0611,0,0.0346,0.0369,0.0385,0.0415,0.0432,0.0455,0.0473,0.0488,0.0495,0.0509,0.0539,0.056,0.0588,0.0597,0.0604,0.0633,0.0631,0.0631,0.0626,0.0643,0.0652,0.0656,0.0611,0.0611,0.0611,0.0611,0,0,0.0365,0.0402,0.0408,0.0422,0.045,0.0469,0.0492,0.0519,0.0532,0.0554,0.0574,0.0608,0.0608,0.0624,0.0633,0.0648,0.0669,0.0647,0.0648,0.0651,0.0702,0.0703,0.0707,0.0672,0.0673,0.0673,0.07,0,0.039,0.0432,0.0445,0.0481,0.0503,0.0511,0.0532,0.0552,0.0565,0.0586,0.06,0.0624,0.0622,0.0632,0.0647,0.0663,0.0679,0.0661,0.0692,0.0693,0.0686,0.0712,0.0712,0.0737,0.0704,0.0705,0.0705,0,0.0424,0.0446,0.0484,0.051,0.0519,0.0538,0.0563,0.0583,0.0605,0.0614,0.0632,0.064,0.0665,0.0658,0.0693,0.068,0.0693,0.0703,0.0704,0.0709,0.07,0.0717,0.0745,0.0749,0.0711,0.0711,0.071,0,0.0435,0.0474,0.0501,0.0513,0.0544,0.0556,0.057,0.0592,0.0607,0.0629,0.0639,0.0664,0.0678,0.0697,0.0712,0.0705,0.0746,0.074,0.0754,0.0754,0.0763,0.0762,0.0794,0.077,0.077,0.077,0.077,0,0.0461,0.0484,0.0507,0.0524,0.055,0.0564,0.059,0.0603,0.0623,0.0643,0.0652,0.0671,0.0689,0.071,0.0721,0.0749,0.0755,0.0763,0.0766,0.0762,0.0762,0.0772,0.0771,0.0771,0.0771,0.0771,0.077,0,0.0478,0.0494,0.0525,0.0551,0.0558,0.0576,0.0599,0.0616,0.0629,0.0654,0.0661,0.0682,0.0707,0.0724,0.0756,0.0764,0.0794,0.0796,0.0786,0.0788,0.0801,0.08,0.0841,0.0848,0.0819,0.0819,0.0819,0,0.0494,0.0512,0.054,0.0554,0.0568,0.059,0.0606,0.062,0.0636,0.0663,0.0677,0.0703,0.0724,0.0764,0.0783,0.0807,0.0811,0.0823,0.0814,0.0811,0.0811,0.0811,0.0813,0.0825,0.0825,0.0825,0.0826,0,0.0521,0.0528,0.055,0.0575,0.0593,0.0613,0.0633,0.0644,0.0662,0.068,0.0705,0.0722,0.0755,0.078,0.0807,0.0821,0.0827,0.0828,0.0833,0.083,0.0824,0.0828,0.0791,0.0827,0.0827,0.0827,0.0827,0.0827,0.0539,0.0555,0.0578,0.0602,0.0618,0.0637,0.0654,0.0669,0.0691,0.0719,0.0726,0.0753,0.0775,0.0811,0.0826,0.0847,0.0846,0.0852,0.0854,0.0856,0.0856,0.082,0.0852,0.0852,0.0852,0.0852,0.0852,0,0.0567,0.0582,0.0604,0.0631,0.065,0.0653,0.0676,0.0691,0.0715,0.0735,0.0756,0.0786,0.0811,0.083,0.0856,0.0869,0.0873,0.0876,0.0875,0.0878,0.0856,0.085,0.0873,0.0873,0.0873,0.0873,0.0873,0.0873,0.0584,0.0612,0.0621,0.0658,0.0672,0.0699,0.0711,0.0728,0.0745,0.0777,0.0798,0.081,0.0831,0.0858,0.0881,0.0886,0.0895,0.0898,0.0903,0.0882,0.088,0.0878,0.0872,0.0899,0.0899,0.0924,0.0925,0.0925]},{"header":{"parameterUnit":"m.s-1","parameterCategory":1,"la1":30.2991,"la2":30.254,"lo1":-89.0895,"lo2":-89.0444,"dx":0.0017,"dy":0.0017,"nx":28,"ny":28,"refTime":"2022-12-07T03:00:00:Z","depth":0,"parameterNumber":3,"parameterNumberName":"V-component_of_WINDS"},"data":[0,0,0,0,0,0,0,0,0,0,0,0,0,0,0,0,0,0,0,0,0,0,0,0,0,0,0,0,0,0,0,0,0,0,0,0,0,0,0,0,0,0,0,0,0,0,0,0,0,0,0,0,0,0,0,0,0,0,3.0986,3.0986,0,3.1036,3.1037,3.1037,3.1027,3.1026,3.1025,3.1024,3.1072,3.1074,3.1076,0,0,0,0,0,0,0,0,0,0,0,0,0,3.0877,3.0879,3.0986,3.0986,3.0987,3.1036,3.1037,3.1037,3.1027,3.1026,3.1025,3.1024,3.1071,3.1074,3.1076,0,0,0,0,0,0,0,0,0,0,0,0,0,3.0926,3.088,3.0986,3.0988,3.0988,3.1036,3.1037,3.1038,3.1027,3.1026,3.1024,3.1023,3.107,3.1073,3.1077,3.1124,0,0,3.1086,3.1088,0,0,0,0,0,0,0,0,3.0923,3.093,3.0987,3.0988,3.0989,3.1024,3.1016,3.1066,3.1028,3.1012,3.1024,3.1022,3.1057,3.1061,3.1073,3.1126,3.1128,3.1087,3.1088,3.109,3.1091,0,0,0,0,0,0,0,3.092,3.0927,3.1005,3.0988,3.0989,3.0985,3.0991,3.1025,3.1041,3.1014,3.1013,3.1019,3.1057,3.107,3.1074,3.1129,3.1086,3.1089,3.1091,3.1093,3.1224,3.1226,0,0,0,0,0,0,3.0916,3.0925,3.1004,3.1007,3.0952,3.0988,3.0994,3.1014,3.1041,3.1044,3.102,3.1019,3.1065,3.1071,3.1076,3.1135,3.109,3.1093,3.1095,3.1222,3.1224,3.1226,0,0,0,0,0,0,3.0914,3.0923,3.1002,3.0966,3.0976,3.0992,3.1014,3.1016,3.1029,3.1046,3.1049,3.1031,3.1065,3.1071,3.1113,3.1136,3.1094,3.1097,3.1221,3.1223,3.1225,3.1251,0,0,0,0,0,0,3.0911,3.0922,3.0941,3.0966,3.0978,3.1039,3.1015,3.1018,3.1035,3.1033,3.1057,3.106,3.1064,3.1108,3.1116,3.114,3.11,3.1219,3.1222,3.1225,3.1248,3.1254,3.1259,0,0,0,0,0,3.0907,3.0945,3.0942,3.0952,3.1001,3.104,3.1046,3.1051,3.1037,3.1056,3.1067,3.1059,3.1132,3.1112,3.1121,3.1146,3.1217,3.1221,3.1224,3.1246,3.1253,3.1259,0,0,0,0,0,0,3.092,3.0948,3.0945,3.0993,3.1015,3.1038,3.1062,3.1058,3.1083,3.108,3.1084,3.109,3.1132,3.1143,3.112,3.1194,3.1172,3.1178,3.1186,3.1192,3.1198,3.1195,3.1102,0,0,0,0,0,3.0929,3.096,3.0982,3.1022,3.1033,3.1046,3.1062,3.1065,3.1086,3.1095,3.1109,3.1129,3.1157,3.1175,3.1201,3.1249,3.1255,3.1271,3.1276,3.1281,3.1286,3.1313,3.1321,3.1238,3.1238,3.1238,0,0,3.0947,3.0966,3.0985,3.1025,3.1042,3.1072,3.1053,3.1086,3.1108,3.1099,3.114,3.1151,3.1174,3.1219,3.124,3.123,3.131,3.1285,3.1288,3.1291,3.1318,3.1326,3.1333,3.124,3.124,3.1239,0,0,3.0997,3.1014,3.105,3.1068,3.1094,3.1102,3.1111,3.1136,3.1143,3.1184,3.1179,3.1205,3.1252,3.1269,3.1284,3.1341,3.1335,3.1349,3.1378,3.1404,3.1411,3.1417,3.1439,3.1446,3.1354,3.1354,3.1354,0,3.1016,3.1063,3.1068,3.1103,3.1121,3.1115,3.1152,3.1168,3.1201,3.1213,3.1202,3.1262,3.1277,3.1327,3.1341,3.1352,3.1363,3.1347,3.141,3.1416,3.1421,3.1442,3.145,3.1355,3.1355,3.1355,3.1355,0,3.1085,3.1118,3.1144,3.1178,3.1199,3.1234,3.1244,3.1264,3.1265,3.1274,3.1316,3.1334,3.1365,3.1376,3.1376,3.1427,3.142,3.1409,3.1388,3.1431,3.145,3.1458,3.1358,3.1357,3.1357,3.1356,0,0,3.1145,3.1183,3.1192,3.1209,3.1238,3.1262,3.1297,3.1329,3.1346,3.1369,3.1398,3.1439,3.143,3.1446,3.1448,3.1471,3.1517,3.1458,3.1458,3.1469,3.1576,3.1585,3.1594,3.1513,3.1515,3.1516,3.1574,0,3.1198,3.1261,3.1268,3.1324,3.1355,3.135,3.1381,3.1401,3.1411,3.1438,3.1448,3.1478,3.1462,3.1473,3.1495,3.1507,3.1539,3.1503,3.1541,3.1542,3.1537,3.1604,3.1614,3.1668,3.1582,3.1583,3.1584,0,3.1268,3.1296,3.1355,3.1382,3.1395,3.1422,3.1452,3.1478,3.1501,3.1507,3.1527,3.1526,3.1561,3.1538,3.1587,3.1562,3.1578,3.1586,3.1588,3.1593,3.1567,3.1612,3.1685,3.1694,3.1596,3.1595,3.1594,0,3.1308,3.1359,3.1402,3.1416,3.1447,3.1467,3.148,3.1502,3.1521,3.1547,3.1559,3.1588,3.1604,3.1626,3.1633,3.1615,3.1682,3.1659,3.1688,3.1688,3.1703,3.1702,3.1781,3.1711,3.1711,3.1711,3.171,0,3.1367,3.1404,3.1421,3.1447,3.1489,3.1495,3.1536,3.1548,3.1568,3.1597,3.1594,3.162,3.1627,3.1654,3.1659,3.17,3.1707,3.1712,3.1713,3.1714,3.1713,3.1725,3.1722,3.1713,3.1712,3.1712,3.1711,0,3.1419,3.1431,3.1478,3.1504,3.1512,3.1542,3.1564,3.1589,3.1599,3.1635,3.1643,3.1658,3.1691,3.17,3.1738,3.1741,3.179,3.1786,3.1783,3.1783,3.1812,3.181,3.1903,3.1916,3.1835,3.1836,3.1837,0,3.1457,3.1486,3.1516,3.1536,3.1551,3.1582,3.1602,3.161,3.163,3.166,3.1682,3.1714,3.1741,3.1793,3.1807,3.1836,3.1834,3.1865,3.1839,3.1839,3.1837,3.1836,3.1839,3.187,3.1871,3.1872,3.1872,0,3.1524,3.1529,3.1558,3.1591,3.1615,3.164,3.1664,3.168,3.1691,3.1714,3.1749,3.177,3.181,3.1842,3.1872,3.1885,3.1881,3.188,3.1889,3.189,3.1888,3.1891,3.1798,3.1878,3.1878,3.1877,3.1877,3.1877,3.1571,3.1597,3.1623,3.1656,3.1676,3.1699,3.1725,3.1738,3.1768,3.1802,3.1804,3.1842,3.1865,3.1905,3.192,3.1949,3.1939,3.1951,3.1955,3.1958,3.1961,3.1882,3.1954,3.1953,3.1953,3.1953,3.1953,0,3.1639,3.1656,3.1686,3.1722,3.1748,3.1743,3.1769,3.1792,3.1825,3.1848,3.1875,3.1914,3.1946,3.1963,3.1994,3.2014,3.2013,3.2022,3.2022,3.2025,3.1967,3.1957,3.2023,3.2023,3.2023,3.2023,3.2023,3.2023,3.1677,3.1722,3.173,3.1785,3.1801,3.1839,3.1855,3.1876,3.1894,3.194,3.1967,3.1978,3.1998,3.2031,3.206,3.2064,3.2076,3.2087,3.209,3.2036,3.2029,3.2022,3.2013,3.2089,3.2089,3.2146,3.2146,3.2147]}]]